7 * 24
多渠道服务支持
STARLINK-30253是美国SpaceX星链(Starlink)卫星互联网项目中的一员,于2023年8月8日,由猎鹰9号火箭在范登堡航天基地发射入轨。卫星运行于近地轨道,轨道倾角约43°,周期约91.6分钟,属于Starlink V1.0平台,旨在为全球尤其是偏远地区提供高速低延迟的互联网接入服务,助力缩小全球数字鸿沟,同时也可为军事、航空等领域提供通信支持。
美国
(US)
| 数据来源 | 国际轨道数据 | AOE轨道数据 |
| 星历时间 | 2026-09-03T13:45:37+0800 1天前 查看轨道信息 | 2026-09-03T12:00:00+0800 1天前 查看轨道信息 |
| 半长轴 | 6861.198km | 6861.219km |
| 偏心率 | 0.0001349 | 0.0001039 |
| 轨道倾角 | 43.002° | 43.003° |
| 近地点辐角 | 274.862° | 279.511° |
| 升交点赤经 | 79.032° | 79.446° |
| 平近点角 | 85.207° | 36.714° |
| 近地点 | 482.135km | 482.369km |
| 远地点 | 483.987km | 483.795km |
| 周期 | 94.267分钟 | 94.267分钟 |
| 每日圈数 | 15.275762 | 15.275693 |
| 事件ID | 空间交会对象 | 最接近时刻(TCA) | 交会距离 | 交会风险概率(CRP) | 交会风险指数(CRI) | 操作 |
|---|---|---|---|---|---|---|
| CDM_260906-044205-752506-358721 |
STARLINK-30253
(57525)
STARLINK-33830
(63587) | 2026-09-06T 04:42:16+0000 |
1.226 km
极远距离 | 5.037689E-6 低风险 | 0.49 | |
| CDM_260905-180605-752506-863221 |
STARLINK-30253
(57525)
RAWHIDE-2
(68632) | 2026-09-05T 18:06:48+0000 |
2.195 km
极远距离 | 1.991537E-6 低风险 | 0.41 | |
| CDM_260906-061605-752506-358721 |
STARLINK-30253
(57525)
STARLINK-33830
(63587) | 2026-09-06T 06:16:25+0000 |
2.043 km
极远距离 | 1.147673E-6 低风险 | 0.36 |